sat.trackr.live / text

‹ back to catalog

STARLINK-31378

NORAD 58932 · 2024-027B

PAYLOAD ACTIVE UNKNOWN

§ Identity

Operator
Country
US
Launch date
2024-02-10
Launch site
AFWTR
Launch vehicle
Mass (kg)
RCS (m²)

Purposes: comms

External: N2YO · Heavens-Above · Gunter

§ Orbital elements

Epoch: 2026-09-20T22:17:52.803168Z

Period
94.02 min
Inclination
53.1595°
Eccentricity
0.0001688
Mean motion
15.31652586 rev/d
Perigee alt
469.7 km
Apogee alt
472.0 km
Semi-major
6,849.0 km
B*
3.3250e-4
RAAN
121.1066°
Arg perigee
104.7712°
Mean anomaly
255.3477°
Rev number
14,724

§ Raw data

STARLINK-313781 58932U 24027B   26263.92908337  .00009951  00000+0  33250-3 0  99912 58932  53.1595 121.1066 0001688 104.7712 255.3477 15.31652586147242

JSON: /api/v1/satellites/58932 · /tle

For live sub-satellite position, see the globe view (requires WebGL).

§ Visibility from observer

Set your observer location to see the next 7 days of passes ≥ 10°. The values pass through the URL so the page stays shareable.

No JS? Fill the form by hand. The geolocation button needs JavaScript.